Weather History for Bartlesville, OK

Change the Weather History Date:

Sunday, May 18, 2014

  Actual Average Record
Temperature  
Mean Temperature 58 °F -  
Max Temperature 75 °F 82 °F 96 °F (1987)
Min Temperature 42 °F 58 °F 40 °F (1976)
Degree Days  
Heating Degree Days 6    
Growing Degree Days 8 (Base 50)    
Moisture  
Dew Point 51 °F    
Average Humidity 82    
Maximum Humidity 100    
Minimum Humidity 55    
Precipitation  
Precipitation 0.00 in - - ()
Sea Level Pressure  
Sea Level Pressure 30.09 in    
Wind  
Wind Speed 4 mph (SE)    
Max Wind Speed 16 mph    
Max Gust Speed 24 mph    
Visibility 7 miles    
Events      
Averages and records for this station are not official NWS values.
T = Trace of Precipitation, MM = Missing Value Source: NWS Daily Summary

Daily Weather History Graph

Daily Weather History Graph

Search for Another Location

Airport:

Trip Planner

Search our weather history database for the weather conditions in past years. The results will help you decide how hot, cold, wet, or windy it might be!

Date:

Astronomy

May. 18, 2014 Rise Set
Actual Time 6:14 AM CDT 8:27 PM CDT
Civil Twilight 5:45 AM CDT 8:56 PM CDT
Nautical Twilight 5:09 AM CDT 9:32 PM CDT
Astronomical Twilight 4:30 AM CDT 10:11 PM CDT
Moon No Moon Rise 10:03 AM CDT (5/18)
Length of Visible Light 15h 11m
Length of Day
14h 13m
Waning Gibbous, 81% of the Moon is Illuminated
May 18
Waning Gibbous
May 21
Last Quarter
May 28
New
Jun 5
First Quarter
Jun 12
Full

Hourly Weather History & Observations

Time (CDT) Temp. Dew Point Humidity Pressure Visibility Wind Dir Wind Speed Gust Speed Precip Events Conditions
12:53 AM 46.9 °F 46.0 °F 97% 30.15 in 7.0 mi Calm Calm - N/A   Clear
1:53 AM 45.0 °F 45.0 °F 100% 30.14 in 5.0 mi Calm Calm - N/A   Clear
2:53 AM 44.1 °F 43.0 °F 96% 30.14 in 4.0 mi Calm Calm - N/A   Clear
3:25 AM 43.0 °F 43.0 °F 100% 30.15 in 2.5 mi Calm Calm - N/A   Clear
3:35 AM 43.0 °F 43.0 °F 100% 30.15 in 4.0 mi Calm Calm - N/A   Clear
3:53 AM 44.1 °F 43.0 °F 96% 30.14 in 5.0 mi Calm Calm - N/A   Clear
4:08 AM 42.1 °F 42.1 °F 100% 30.15 in 2.5 mi Calm Calm - N/A   Partly Cloudy
4:17 AM 43.0 °F 43.0 °F 100% 30.15 in 3.0 mi Calm Calm - N/A   Mostly Cloudy
4:53 AM 43.0 °F 43.0 °F 100% 30.15 in 5.0 mi Calm Calm - N/A   Scattered Clouds
5:53 AM 46.0 °F 45.0 °F 96% 30.15 in 6.0 mi Calm Calm - N/A   Clear
6:00 AM 45.0 °F 44.1 °F 97% 30.16 in 6.0 mi Calm Calm - N/A   Scattered Clouds
6:09 AM 44.1 °F 44.1 °F 100% 30.16 in 4.0 mi Calm Calm - N/A   Mostly Cloudy
6:35 AM 46.0 °F 45.0 °F 96% 30.16 in 3.0 mi Calm Calm - N/A   Partly Cloudy
6:53 AM 48.0 °F 46.9 °F 96% 30.16 in 3.0 mi Calm Calm - N/A   Mostly Cloudy
7:53 AM 52.0 °F 51.1 °F 97% 30.17 in 5.0 mi Variable 3.5 mph - N/A   Clear
8:53 AM 54.0 °F 52.0 °F 93% 30.17 in 8.0 mi Calm Calm - N/A   Scattered Clouds
9:53 AM 60.1 °F 53.1 °F 78% 30.16 in 10.0 mi SE 6.9 mph - N/A   Partly Cloudy
10:53 AM 63.0 °F 52.0 °F 67% 30.14 in 10.0 mi SSE 11.5 mph - N/A   Clear
11:53 AM 66.9 °F 53.1 °F 61% 30.13 in 10.0 mi SE 11.5 mph 17.3 mph N/A   Clear
12:53 PM 70.0 °F 55.0 °F 59% 30.10 in 10.0 mi SE 13.8 mph - N/A   Clear
1:53 PM 72.0 °F 55.9 °F 57% 30.08 in 10.0 mi SSE 12.7 mph - N/A   Clear
2:53 PM 73.9 °F 57.9 °F 57% 30.05 in 10.0 mi ESE 12.7 mph 21.9 mph N/A   Clear
3:53 PM 75.0 °F 57.9 °F 55% 30.03 in 10.0 mi South 15.0 mph - N/A   Scattered Clouds
4:53 PM 75.0 °F 59.0 °F 57% 30.01 in 10.0 mi SE 12.7 mph 21.9 mph N/A   Scattered Clouds
5:53 PM 73.9 °F 57.9 °F 57% 29.98 in 10.0 mi SE 15.0 mph - N/A   Clear
6:53 PM 73.9 °F 57.0 °F 55% 29.96 in 10.0 mi SSE 16.1 mph 24.2 mph N/A   Clear
7:53 PM 71.1 °F 59.0 °F 66% 29.95 in 10.0 mi SE 11.5 mph - N/A   Clear
8:53 PM 69.1 °F 59.0 °F 70% 29.95 in 10.0 mi SE 12.7 mph - N/A   Clear
9:53 PM 66.9 °F 59.0 °F 76% 29.96 in 10.0 mi SSE 13.8 mph 18.4 mph N/A   Clear
10:53 PM 64.9 °F 59.0 °F 81% 29.97 in 10.0 mi SSE 10.4 mph - N/A   Clear
11:53 PM 64.0 °F 59.0 °F 84% 29.97 in 10.0 mi SSE 8.1 mph - N/A   Clear